User: anonymous   Login
Location: Stara Lesna
(49.1528°N, 20.2911°E)
Time: 17:55:10
(UTC+01:00)
Language:

H-2A R/B - Orbit

View from above orbital plane
View from above orbital plane
View from above satellite
View from above satellite

Ground track
Ground track

The orbit data is extracted from the following two-line orbital elements,

1 28932U 06002B   19322.55579112  .00000481  00000-0  50623-4 0  9997
2 28932  98.3007 295.9454 0087758 295.2702 177.2093 14.92085359749659
Epoch (UTC): 18 November 2019 13:20:20
Eccentricity: 0.0087758
inclination: 98.3007°
perigee height: 530 km
apogee height: 652 km
right ascension of ascending node: 295.9454°
argument of perigee: 295.2702°
revolutions per day: 14.92085359
mean anomaly at epoch: 177.2093°
orbit number at epoch: 74965

The dashed part of the orbit path shows where the satellite is in the earth's shadow,  

DLR